[[{"header":{"parameterUnit":"m.s-1","parameterCategory":1,"la1":30.2991,"la2":30.254,"lo1":-89.0895,"lo2":-89.0444,"dy":0.0017,"dx":0.0017,"nx":28,"ny":28,"refTime":"2025-07-12T09:00:00:Z","depth":0,"parameterNumber":2,"parameterNumberName":"U-component_of_WINDS"},"data":[0,0,0,0,0,0,0,0,0,0,0,0,0,0,0,0,0,0,0,0,0,0,0,0,0,0,0,0,0,0,0,0,0,0,0,0,0,0,0,0,0,0,0,0,0,0,0,0,0,0,0,0,0,0,0,0,0,0,1.0811,1.0811,0,1.0867,1.0867,1.0868,1.0876,1.0876,1.0875,1.0875,1.0931,1.0933,1.0934,0,0,0,0,0,0,0,0,0,0,0,0,0,1.0707,1.0709,1.0811,1.0811,1.0812,1.0867,1.0867,1.0868,1.0876,1.0875,1.0875,1.0874,1.093,1.0932,1.0935,0,0,0,0,0,0,0,0,0,0,0,0,0,1.0757,1.071,1.081,1.0823,1.0824,1.0866,1.0867,1.0868,1.0876,1.0875,1.0875,1.0874,1.0929,1.0932,1.0935,1.0969,0,0,1.0944,1.0945,0,0,0,0,0,0,0,0,1.0754,1.076,1.082,1.0822,1.0824,1.0864,1.0852,1.0902,1.0876,1.0856,1.0874,1.0874,1.0909,1.0913,1.0926,1.0971,1.0974,1.0944,1.0946,1.0947,1.0948,0,0,0,0,0,0,0,1.075,1.0758,1.0833,1.0821,1.0823,1.0824,1.083,1.0861,1.0886,1.0858,1.0859,1.0865,1.091,1.0923,1.0927,1.0975,1.0944,1.0947,1.0949,1.095,1.1049,1.1049,0,0,0,0,0,0,1.0745,1.0755,1.0831,1.0834,1.0786,1.0827,1.0834,1.0852,1.0886,1.089,1.0866,1.0866,1.0918,1.0924,1.0929,1.0969,1.0947,1.095,1.0952,1.1048,1.1049,1.105,0,0,0,0,0,0,1.0743,1.0752,1.0829,1.0795,1.0805,1.0829,1.0849,1.0853,1.0866,1.0892,1.0896,1.0875,1.0918,1.0925,1.0958,1.0971,1.0951,1.0954,1.1047,1.1048,1.1049,1.1051,0,0,0,0,0,0,1.074,1.0751,1.0765,1.0795,1.0807,1.0858,1.085,1.0855,1.0871,1.0871,1.0901,1.0906,1.0918,1.0954,1.0961,1.0975,1.0956,1.1046,1.1047,1.1049,1.105,1.1052,1.1054,0,0,0,0,0,1.0736,1.0763,1.0765,1.0775,1.0824,1.0859,1.0865,1.0879,1.0872,1.0886,1.0902,1.0905,1.0969,1.0957,1.0966,1.0981,1.1045,1.1047,1.1049,1.1049,1.1052,1.1054,0,0,0,0,0,0,1.0733,1.0767,1.077,1.0808,1.083,1.086,1.0877,1.0882,1.0906,1.0905,1.092,1.0927,1.0959,1.0973,1.096,1.1014,1.1006,1.101,1.1004,1.1006,1.1009,1.1004,1.0959,0,0,0,0,0,1.0737,1.0763,1.0791,1.0821,1.0832,1.0853,1.0868,1.0877,1.09,1.091,1.0929,1.0951,1.0976,1.0992,1.1017,1.1052,1.1058,1.1066,1.1069,1.107,1.1073,1.1091,1.1095,1.1056,1.1056,1.1056,0,0,1.0745,1.0767,1.0782,1.0821,1.084,1.0865,1.0861,1.0888,1.0906,1.0914,1.0946,1.0961,1.0987,1.1021,1.1037,1.1034,1.1085,1.1073,1.1074,1.1076,1.1093,1.1097,1.11,1.1057,1.1057,1.1057,0,0,1.0772,1.0792,1.0818,1.0837,1.0865,1.0878,1.0884,1.0913,1.0923,1.0956,1.0962,1.0983,1.1027,1.1044,1.1059,1.1091,1.1094,1.1099,1.111,1.1127,1.113,1.1133,1.1143,1.1147,1.1102,1.1102,1.1102,0,1.0778,1.0817,1.0832,1.0858,1.0874,1.0883,1.0909,1.0926,1.096,1.0971,1.0967,1.102,1.1038,1.1076,1.1084,1.1096,1.1102,1.1095,1.1129,1.1132,1.1134,1.1144,1.1148,1.1102,1.1102,1.1102,1.1102,0,1.0822,1.0849,1.0867,1.09,1.0918,1.0945,1.0962,1.0979,1.0986,1.0999,1.1032,1.1054,1.1082,1.1092,1.1099,1.113,1.1127,1.1126,1.1118,1.1138,1.1148,1.1152,1.1102,1.1102,1.1102,1.1102,0,0,1.0849,1.0889,1.0895,1.0909,1.094,1.0961,1.0987,1.1015,1.1028,1.1051,1.1073,1.1109,1.1107,1.1124,1.1133,1.1148,1.117,1.1145,1.1146,1.1148,1.1205,1.1204,1.1209,1.1173,1.1173,1.1174,1.1202,0,1.0878,1.0926,1.0939,1.0979,1.1003,1.101,1.1033,1.1053,1.1066,1.1088,1.1102,1.1126,1.1124,1.1133,1.1149,1.1164,1.1182,1.1163,1.1191,1.1192,1.1184,1.1214,1.1214,1.1239,1.1206,1.1207,1.1207,0,1.0919,1.0943,1.0985,1.1011,1.1022,1.1042,1.1068,1.1089,1.1112,1.112,1.1138,1.1145,1.1171,1.1163,1.1198,1.1185,1.1198,1.1207,1.1208,1.121,1.12,1.1216,1.1248,1.1251,1.1213,1.1213,1.1212,0,1.0933,1.0975,1.1006,1.1018,1.105,1.1063,1.1077,1.11,1.1115,1.1138,1.1147,1.1173,1.1186,1.1205,1.1218,1.1211,1.1252,1.1245,1.1259,1.1258,1.1267,1.1266,1.13,1.1276,1.1276,1.1276,1.1276,0,1.0964,1.0989,1.1012,1.103,1.1058,1.1073,1.1099,1.1113,1.1133,1.1153,1.1162,1.118,1.1197,1.1218,1.1229,1.1256,1.1262,1.1269,1.1271,1.1267,1.1266,1.1275,1.1273,1.1277,1.1277,1.1277,1.1277,0,1.0983,1.1,1.1033,1.106,1.1068,1.1087,1.111,1.1127,1.114,1.1166,1.1173,1.1193,1.1218,1.1233,1.1265,1.1272,1.1301,1.1303,1.1293,1.1294,1.1306,1.1305,1.1347,1.1352,1.1326,1.1326,1.1326,0,1.1002,1.1021,1.105,1.1065,1.1078,1.1102,1.1117,1.1132,1.1148,1.1175,1.1189,1.1215,1.1236,1.1275,1.1292,1.1315,1.1318,1.1331,1.1321,1.1316,1.1316,1.1314,1.1316,1.1332,1.1332,1.1332,1.1332,0,1.1031,1.1038,1.1061,1.1086,1.1105,1.1126,1.1146,1.1157,1.1175,1.1192,1.1218,1.1234,1.1266,1.1291,1.1316,1.1329,1.1333,1.1335,1.1339,1.1336,1.1328,1.1331,1.1296,1.1334,1.1334,1.1334,1.1334,1.1334,1.105,1.1067,1.109,1.1115,1.1131,1.115,1.1167,1.1182,1.1204,1.1231,1.1239,1.1265,1.1286,1.132,1.1334,1.1354,1.1352,1.1359,1.136,1.1361,1.1361,1.1326,1.1359,1.1359,1.1359,1.1359,1.1359,0,1.1079,1.1094,1.1117,1.1145,1.1164,1.1167,1.1189,1.1205,1.1228,1.1247,1.1268,1.1296,1.132,1.1339,1.1363,1.1375,1.1377,1.1381,1.1379,1.1382,1.1362,1.1355,1.1378,1.1378,1.1378,1.1378,1.1378,1.1378,1.1097,1.1125,1.1135,1.1171,1.1186,1.1212,1.1224,1.1241,1.1256,1.1288,1.1308,1.132,1.1338,1.1364,1.1385,1.139,1.1398,1.14,1.1405,1.1386,1.1384,1.1382,1.1375,1.1402,1.1402,1.1424,1.1424,1.1424]},{"header":{"parameterUnit":"m.s-1","parameterCategory":1,"la1":30.2991,"la2":30.254,"lo1":-89.0895,"lo2":-89.0444,"dy":0.0017,"dx":0.0017,"nx":28,"ny":28,"refTime":"2025-07-12T09:00:00:Z","depth":0,"parameterNumber":3,"parameterNumberName":"V-component_of_WINDS"},"data":[0,0,0,0,0,0,0,0,0,0,0,0,0,0,0,0,0,0,0,0,0,0,0,0,0,0,0,0,0,0,0,0,0,0,0,0,0,0,0,0,0,0,0,0,0,0,0,0,0,0,0,0,0,0,0,0,0,0,4.2727,4.2727,0,4.2711,4.2711,4.2711,4.2627,4.2625,4.2623,4.2621,4.2606,4.2608,4.2609,0,0,0,0,0,0,0,0,0,0,0,0,0,4.2684,4.2685,4.2727,4.2727,4.2726,4.2711,4.2711,4.2711,4.2627,4.2625,4.2622,4.262,4.2606,4.2608,4.2609,0,0,0,0,0,0,0,0,0,0,0,0,0,4.2689,4.2686,4.2727,4.2683,4.2679,4.2711,4.2711,4.2711,4.2628,4.2625,4.2622,4.2619,4.2605,4.2607,4.261,4.2684,0,0,4.2616,4.2617,0,0,0,0,0,0,0,0,4.2689,4.2691,4.269,4.2686,4.2681,4.2668,4.269,4.2702,4.2629,4.2647,4.2621,4.2617,4.2629,4.2629,4.2633,4.2683,4.2682,4.2617,4.2618,4.2619,4.262,0,0,0,0,0,0,0,4.2689,4.2691,4.2721,4.269,4.2685,4.2664,4.2661,4.2692,4.2655,4.2645,4.2639,4.2638,4.2627,4.2631,4.2632,4.2682,4.2617,4.2618,4.262,4.2621,4.279,4.2793,0,0,0,0,0,0,4.2694,4.2691,4.2721,4.272,4.2678,4.2667,4.2664,4.2675,4.2655,4.2649,4.2641,4.2635,4.2629,4.263,4.2631,4.2715,4.2619,4.2621,4.2622,4.2787,4.2791,4.2794,0,0,0,0,0,0,4.2694,4.2698,4.2722,4.2704,4.2705,4.2671,4.2684,4.2677,4.2681,4.2652,4.2645,4.2653,4.2627,4.2628,4.2671,4.2714,4.2622,4.2624,4.2783,4.2788,4.2793,4.2885,0,0,0,0,0,0,4.2693,4.2698,4.2726,4.2705,4.2707,4.2762,4.2687,4.2679,4.2685,4.2676,4.2661,4.2655,4.2624,4.2668,4.2673,4.2715,4.2626,4.2779,4.2786,4.2791,4.2878,4.2892,4.2904,0,0,0,0,0,4.2692,4.2753,4.2728,4.2732,4.2741,4.2764,4.2765,4.2728,4.2689,4.2716,4.2697,4.2655,4.2708,4.2673,4.2678,4.2721,4.2777,4.2784,4.2791,4.2872,4.2889,4.2904,0,0,0,0,0,0,4.2781,4.275,4.2721,4.2778,4.2774,4.275,4.2784,4.2748,4.2756,4.2748,4.2702,4.2699,4.2748,4.2739,4.27,4.2791,4.2735,4.2744,4.2795,4.2811,4.2825,4.2825,4.2628,0,0,0,0,0,4.2807,4.2828,4.28,4.2853,4.2853,4.2819,4.2828,4.28,4.2794,4.2792,4.2776,4.2773,4.2788,4.28,4.2812,4.2876,4.2871,4.2909,4.2922,4.2933,4.294,4.2972,4.2988,4.2818,4.2818,4.2818,0,0,4.2861,4.2847,4.2864,4.2871,4.2864,4.2887,4.2818,4.2846,4.2862,4.2797,4.2835,4.2824,4.2817,4.287,4.2892,4.2864,4.2986,4.2942,4.2951,4.2952,4.2981,4.2997,4.3011,4.2823,4.2822,4.2821,0,0,4.2972,4.2964,4.3006,4.3001,4.2992,4.2969,4.2979,4.296,4.2949,4.2988,4.2938,4.2957,4.2986,4.2982,4.2984,4.3092,4.3054,4.3098,4.3167,4.3198,4.3212,4.3223,4.326,4.3274,4.3106,4.3106,4.3106,0,4.3041,4.3073,4.3032,4.3062,4.3066,4.3007,4.3049,4.3046,4.3043,4.3047,4.3015,4.3048,4.3039,4.309,4.3116,4.312,4.313,4.3099,4.3213,4.3224,4.3234,4.3269,4.3284,4.3111,4.3111,4.311,4.311,0,4.3157,4.318,4.3215,4.3212,4.322,4.3256,4.3221,4.3234,4.3205,4.3185,4.3224,4.3212,4.322,4.323,4.3203,4.3277,4.3259,4.3221,4.3164,4.3257,4.3288,4.3302,4.3119,4.3117,4.3115,4.3114,0,0,4.3323,4.3296,4.3309,4.3306,4.3292,4.3309,4.3342,4.335,4.3361,4.3361,4.3387,4.3412,4.3375,4.3378,4.335,4.3377,4.3462,4.3335,4.3334,4.3358,4.3541,4.3569,4.3585,4.3437,4.3439,4.3441,4.3541,0,4.3427,4.3481,4.3445,4.3505,4.3525,4.3469,4.3498,4.3492,4.3475,4.3489,4.347,4.3488,4.344,4.3441,4.3466,4.3446,4.3498,4.3439,4.346,4.3461,4.3462,4.3602,4.3631,4.3726,4.3553,4.3555,4.3557,0,4.3556,4.356,4.3622,4.3601,4.3608,4.3635,4.3638,4.3653,4.3645,4.363,4.3633,4.3597,4.3628,4.3572,4.3614,4.3574,4.3581,4.3573,4.3576,4.3575,4.3514,4.3603,4.3756,4.377,4.3576,4.3575,4.3574,0,4.3669,4.3689,4.3728,4.3728,4.3706,4.3725,4.3717,4.3706,4.3713,4.3716,4.3719,4.3727,4.3731,4.3737,4.3704,4.3667,4.375,4.3692,4.3738,4.3738,4.3756,4.3755,4.391,4.3764,4.3763,4.3763,4.3763,0,4.3788,4.3828,4.3778,4.3802,4.3845,4.3803,4.3846,4.3832,4.3823,4.3843,4.3796,4.3816,4.3772,4.3787,4.3762,4.3799,4.3802,4.379,4.3783,4.3794,4.3795,4.3796,4.3788,4.3767,4.3766,4.3765,4.3765,0,4.392,4.3889,4.3928,4.3903,4.3898,4.393,4.3909,4.3931,4.391,4.3936,4.3939,4.3907,4.3923,4.3891,4.3903,4.3885,4.3938,4.3921,4.394,4.3934,4.3981,4.3977,4.4141,4.416,4.4003,4.4004,4.4006,0,4.3998,4.4027,4.4005,4.4014,4.4009,4.4025,4.4031,4.3991,4.3999,4.3991,4.4013,4.4025,4.4032,4.406,4.4037,4.4046,4.4028,4.4085,4.4029,4.4038,4.4027,4.4025,4.4027,4.4096,4.4098,4.4099,4.4101,0,4.4138,4.4121,4.413,4.4135,4.4143,4.4145,4.4143,4.4154,4.4111,4.4123,4.4137,4.4143,4.4154,4.4166,4.4169,4.4161,4.4124,4.4119,4.4129,4.414,4.4149,4.4143,4.397,4.4115,4.4113,4.4112,4.4112,4.4111,4.4244,4.4266,4.4254,4.4266,4.426,4.426,4.4278,4.4259,4.427,4.4275,4.4251,4.4271,4.4262,4.4262,4.4258,4.4273,4.4247,4.4263,4.4267,4.4271,4.4278,4.4148,4.4273,4.4273,4.4273,4.4272,4.4272,0,4.438,4.4369,4.4381,4.4379,4.4389,4.4352,4.4348,4.4359,4.4377,4.4371,4.4378,4.4395,4.4406,4.4384,4.4392,4.4408,4.4391,4.4411,4.4409,4.4407,4.4301,4.429,4.4425,4.4425,4.4425,4.4425,4.4424,4.4424,4.4452,4.4487,4.4468,4.45,4.4489,4.4507,4.4508,4.4507,4.4501,4.4522,4.453,4.4516,4.4503,4.4509,4.4518,4.4511,4.4516,4.4541,4.4529,4.443,4.4415,4.4401,4.439,4.4543,4.4543,4.4633,4.4634,4.4635]}]]